User: anonymous   Login
Location: Unspecified
(0.0000°N, 0.0000°E)
Time: 15:12:07
(UTC+00:00)
Language:

Kyokko - Orbit

View from above orbital plane
View from above orbital plane
View from above satellite
View from above satellite

Ground track
Ground track

The orbit data is extracted from the following two-line orbital elements,

1 10664U 78014A   18051.91683022 -.00000032 +00000-0 +73400-5 0  9998
2 10664 065.3659 245.3103 1901512 031.5419 338.6554 10.75478357556011
Epoch (UTC): 20 February 2018 22:00:14
Eccentricity: 0.1901512
inclination: 65.3659°
perigee height: 643 km
apogee height: 3940 km
right ascension of ascending node: 245.3103°
argument of perigee: 31.5419°
revolutions per day: 10.75478357
mean anomaly at epoch: 338.6554°
orbit number at epoch: 55601

The dashed part of the orbit path shows where the satellite is in the earth's shadow,  

DLR